Flag for U.S.A. Weather past 2 weeks in Dallas, Texas, U.S.A.

Now
60 °F

Passing clouds.


Feels Like: 60 °F
Forecast: 55 / 77 °F
Wind: 10 mph from Southeast

Location: Dallas Love Field


UV Index: 0 (Low)

Visibility: 10 mi


Pressure: 30.11 "Hg

Humidity: 65%

Dew point: 48 °F

Location of DallasLocation

Historic Weather in Dallas

°F

Dallas temperature yesterday

Maximum temperature yesterday: 76 °F (at 2:53 PM)
Minimum temperature yesterday: 57 °F (at 6:53 AM)
Average temperature yesterday: 66 °F

Past Weeks' High & Low Weather Summary

 TemperatureHumidityPressure
High86 °F (Apr 10, 3:53 PM)93% (Apr 6, 8:53 PM)30.33 "Hg (Apr 6, 8:53 PM)
Low38 °F (Apr 15, 5:53 AM)15% (Apr 15, 3:53 PM)29.57 "Hg (Apr 13, 7:53 PM)
Average61 °F58%30.00 "Hg
* Reported Apr 4 4:53 AM — Apr 19 4:53 AM, Dallas, Weather by CustomWeather, © 2014

Note: Actual official high and low records may vary slightly from our data, if they occured in-between our weather recording intervals... More about our weather records

Advertising

Historic Weather Conditions — Data for Previous 24 hours

 ConditionsComfort  
Time TempWeatherWind HumidityBarometerVisibility
4:53 AM
Apr 19
60 °FPassing clouds.10 mph65%30.11 "Hg10 mi
3:53 AM60 °FPassing clouds.7 mph62%30.11 "Hg10 mi
2:53 AM59 °FPassing clouds.5 mph62%30.12 "Hg10 mi
1:53 AM62 °FPassing clouds.5 mph54%30.12 "Hg10 mi
12:53 AM61 °FPassing clouds.7 mph58%30.12 "Hg10 mi
11:53 PM
Apr 18
62 °FPassing clouds.5 mph54%30.13 "Hg10 mi
10:53 PM67 °FPassing clouds.7 mph44%30.14 "Hg10 mi
9:53 PM68 °FPassing clouds.9 mph42%30.12 "Hg10 mi
8:53 PM70 °FBroken clouds.8 mph39%30.11 "Hg10 mi
7:53 PM72 °FBroken clouds.7 mph35%30.10 "Hg10 mi
6:53 PM75 °FScattered clouds.N/A32%30.10 "Hg10 mi
5:53 PM76 °FScattered clouds.5 mph32%30.10 "Hg10 mi
4:53 PM76 °FScattered clouds.No wind33%30.11 "Hg10 mi
3:53 PM75 °FPassing clouds.5 mph32%30.12 "Hg10 mi
2:53 PM76 °FPassing clouds.N/A33%30.15 "Hg10 mi
1:53 PM75 °FPassing clouds.3 mph37%30.17 "Hg10 mi
12:53 PM72 °FPassing clouds.5 mph43%30.19 "Hg10 mi
11:53 AM70 °FPassing clouds.7 mph47%30.22 "Hg10 mi
10:53 AM66 °FPassing clouds.8 mph52%30.23 "Hg10 mi
9:53 AM62 °FPartly sunny.7 mph65%30.23 "Hg10 mi
8:53 AM60 °FPartly sunny.No wind78%30.22 "Hg8 mi
7:53 AM58 °FMostly cloudy.3 mph81%30.22 "Hg7 mi
6:53 AM57 °FPartly cloudy.3 mph83%30.19 "Hg8 mi
5:53 AM58 °FMostly cloudy.No wind84%30.18 "Hg7 mi
Weather by CustomWeather, © 2014

See weather overview